Location: Unspecified
(0.0000°N, 0.0000°E)
Time: 07:52:46
(UTC+00:00)

M-CUBED/EXP-1 PRIME - Visible Passes

Search period start: 26 October 2020 00:00
Search period end: 05 November 2020 00:00
Orbit: 429 x 664 km, 101.7° (Epoch: 25 October)

Date Brightness Start Highest point End Pass type
(mag) Time Alt. Az. Time Alt. Az. Time Alt. Az.
26 Oct ? 03:36:44 10° SE 03:37:55 18° SE 03:37:55 18° SE visible
27 Oct ? 03:31:36 10° SE 03:32:34 15° ESE 03:32:34 15° ESE visible
28 Oct ? 03:26:34 10° ESE 03:27:12 13° ESE 03:27:12 13° ESE visible
28 Oct ? 05:02:32 10° WSW 05:02:51 10° WSW 05:02:51 10° WSW visible
29 Oct ? 03:21:48 10° ESE 03:21:50 10° ESE 03:21:50 10° ESE visible
29 Oct ? 04:55:39 10° SW 04:57:24 13° WSW 04:57:29 13° WSW visible
30 Oct ? 04:49:34 10° SSW 04:51:56 18° WSW 04:52:07 17° WSW visible
31 Oct ? 04:43:42 10° SSW 04:46:28 23° WSW 04:46:44 23° W visible
01 Nov ? 04:37:56 10° S 04:40:59 31° WSW 04:41:22 30° W visible
02 Nov ? 04:32:16 10° S 04:35:29 42° WSW 04:35:59 39° W visible
03 Nov ? 04:26:40 10° S 04:29:58 60° WSW 04:30:36 48° NW visible
04 Nov ? 04:21:08 10° SSE 04:24:28 86° WSW 04:25:13 50° NNW visible
